{"data":{"norad_id":62588,"epoch":"2026-09-21T13:38:51.502560Z","epoch_age_seconds":79042,"freshness":"FRESH","line1":"1 62588U 25008B   26264.56865165  .00187636  00000+0  14375-2 0  9998","line2":"2 62588  42.9996  25.2273 0001672 273.2352  86.8324 15.70765308 96920","mean_motion":15.70765308,"eccentricity":0.0001672,"inclination_deg":42.9996,"raan_deg":25.2273,"arg_perigee_deg":273.2352,"mean_anomaly_deg":86.8324,"bstar":0.0014375,"rev_number":9692,"period_min":91.675057544625,"perigee_km":355.58248756631,"apogee_km":357.83461991948,"semimajor_km":6734.8455537429,"source":"CELESTRAK","updated_at":"2026-09-22T09:00:49.630656Z"}}